Погода в Мурмашах

Россия / Мурманская область     68°48′54″N   32°48′44″E
темп.,
°C
ветер,
м/с
пор.,
м/с
влажн.,
%
обл.,
%
осадки,
мм/ч
давл.,
гПа
погр.,
м
15 апреля, чт
чт1500:00−3з8167686 0.0 10151151
03:00−4з6157695 0.0 1018798
06:00−4з4137568 0.0 1020592
09:00−2юз257298 0.0 1021388
12:000юз468299 0.1 1022783
15:00+1юз3896100 0.5 1021568
18:00+2зюз41198100 0.7 1022937
21:00+2з51390100 0.9 10221013
16 апреля, пт
пт1600:00+2з61381100 0.1 1024993
03:00+2зсз61283100 0.4 1026976
06:000зсз5138389 0.0 1028716
09:00+2з498750 0.0 1029599
12:00+3з4984100 0.0 1031906
15:00+4з4107898 0.0 10311092
18:00+5з4117593 0.0 1031755
21:00+2з3108699 0.0 1031289
17 апреля, сб
сб1700:00+2з41386100 0.0 1031548
03:00+1зюз289181 0.0 1031252
06:00+1зюз31088100 0.0 1031316
09:00+3зюз4127998 0.0 1030453
12:00+6з4117595 0.0 1031713
15:00+7зсз497170 0.0 10311100
18:00+5зсз3107415 0.0 1032511
21:000зюз11955 0.0 103311
18 апреля, вс
вс1800:00−1зюз11950 0.0 103411
03:00−2юз119711 0.0 103411
06:00−1ююз11969 0.0 103419
09:00+5ю12770 0.0 1034168
12:00+8ю35625 0.0 1033683
15:00+8ююз46675 0.0 1032955
18:00+7ююз37776 0.0 1031551
21:00+3ю2791100 0.0 1031140
19 апреля, пн
пн1900:00+2ю2593100 0.0 103197
03:00+1ю2492100 0.0 103073
06:00+1ю2591100 0.0 1029111
09:00+5ююз397668 0.0 1028440
12:00+9юз47635 0.0 1027741
15:00+10юз58575 0.0 10261116
18:00+10юз49593 0.0 10251138
21:00+7ююз25784 0.0 1025111